Hanford, WA

12:44 AM PDT on July 24, 2017 (GMT -0700)
Hanford

Weather History for KHMS - December, 2011

Change the Weather History Date:

Tuesday, December 6, 2011

  Actual Average Record
Temperature  
Mean Temperature 25 °F -  
Max Temperature 34 °F 40 °F 55 °F (1999)
Min Temperature 16 °F 29 °F 16 °F (2011)
Degree Days  
Heating Degree Days 40    
Moisture  
Dew Point 22 °F    
Average Humidity 87    
Maximum Humidity 97    
Minimum Humidity 69    
Precipitation  
Precipitation 0.00 in - - ()
Sea Level Pressure  
Sea Level Pressure 30.39 in    
Wind  
Wind Speed 6 mph (NW)    
Max Wind Speed 8 mph    
Max Gust Speed -    
Visibility 13 miles    
Events      
Averages and records for this station are not official NWS values.
T = Trace of Precipitation, MM = Missing Value Source: NWS Daily Summary

Daily Weather History Graph

Daily Weather History Graph

Search for Another Location

Airport or City:

Trip Planner

Search our weather history database for the weather conditions in past years. The results will help you decide how hot, cold, wet, or windy it might be!

Date:

Astronomy

Dec. 06, 2011 Rise Set
Actual Time 7:27 AM PST 4:11 PM PST
Civil Twilight 6:52 AM PST 4:45 PM PST
Nautical Twilight 6:14 AM PST 5:24 PM PST
Astronomical Twilight 5:38 AM PST 6:00 PM PST
Moon 1:48 PM PST (12/6) 3:42 AM PST (12/6)
Length of Visible Light 9h 53m
Length of Day
8h 43m
Waxing Gibbous, 87% of the Moon is Illuminated
Dec 6
Waxing Gibbous
Dec 10
Full
Dec 17
Last Quarter
Dec 24
New
Dec 31
First Quarter

Hourly Weather History & Observations

Time (PST) Temp. Windchill Dew Point Humidity Pressure Visibility Wind Dir Wind Speed Gust Speed Precip Events Conditions
12:50 AM 25.0 °F 17.1 °F 22.8 °F 91% 30.43 in 15.0 mi West 6.9 mph - N/A   Clear
1:50 AM 25.3 °F 16.7 °F 23.2 °F 91% 30.43 in 15.0 mi WNW 8.1 mph - N/A   Clear
2:50 AM 24.6 °F 16.7 °F 23.2 °F 94% 30.43 in 15.0 mi WNW 6.9 mph - N/A   Clear
3:50 AM 19.9 °F - 18.3 °F 93% 30.42 in 15.0 mi SSW 2.3 mph - N/A   Clear
4:50 AM 19.9 °F 11.1 °F 18.1 °F 93% 30.41 in 15.0 mi SSW 6.9 mph - N/A   Clear
5:50 AM 18.0 °F 11.1 °F 17.1 °F 96% 30.40 in 15.0 mi SE 4.6 mph - N/A   Clear
6:50 AM 18.1 °F 11.3 °F 16.9 °F 95% 30.39 in 15.0 mi ESE 4.6 mph - N/A   Clear
7:50 AM 16.3 °F - 14.5 °F 93% 30.39 in 12.0 mi ESE 2.3 mph - N/A   Clear
9:50 AM 23.2 °F 18.7 °F 22.5 °F 97% 30.40 in 1.2 mi North 3.5 mph - N/A   Clear
10:50 AM 26.8 °F 21.4 °F 24.1 °F 90% 30.40 in 7.0 mi NNE 4.6 mph - N/A   Partly Cloudy
11:50 AM 31.3 °F 26.6 °F 25.0 °F 77% 30.38 in 8.0 mi NE 4.6 mph - N/A   Partly Cloudy
12:50 PM 33.3 °F 30.2 °F 25.3 °F 73% 30.36 in 10.0 mi NNW 3.5 mph - N/A   Clear
1:50 PM 34.5 °F 30.4 °F 25.3 °F 69% 30.35 in 12.0 mi North 4.6 mph - N/A   Clear
2:50 PM 34.9 °F 30.8 °F 26.8 °F 72% 30.35 in 12.0 mi NW 4.6 mph - N/A   Clear
3:50 PM 32.2 °F 26.7 °F 25.0 °F 75% 30.36 in 15.0 mi NW 5.8 mph - N/A   Clear
4:50 PM 29.8 °F 22.2 °F 24.1 °F 79% 30.37 in 15.0 mi West 8.1 mph - N/A   Clear
5:50 PM 27.9 °F 19.8 °F 23.4 °F 83% 30.38 in 15.0 mi WSW 8.1 mph - N/A   Clear
6:50 PM 25.9 °F 19.2 °F 21.9 °F 85% 30.38 in 15.0 mi West 5.8 mph - N/A   Clear
9:50 PM 23.7 °F 19.3 °F 21.6 °F 91% 30.42 in 15.0 mi WNW 3.5 mph - N/A   Clear
10:50 PM 21.9 °F 17.2 °F 19.8 °F 91% 30.42 in 15.0 mi North 3.5 mph - N/A   Clear
11:50 PM 21.6 °F - 19.8 °F 93% 30.42 in 15.0 mi NW 2.3 mph - N/A   Clear